Location: Hurstbourne Priors
(51.2000°N, 1.3667°W)
Time: 16:04:57
(UTC+00:00)

Altair - All Passes

Search period start: 11 April 2021 00:00
Search period end: 21 April 2021 00:00
Orbit: 1501 x 1683 km, 47.2° (Epoch: 10 April)

Date Brightness Start Highest point End Pass type
(mag) Time Alt. Az. Time Alt. Az. Time Alt. Az.
11 Apr - 06:45:02 10° S 06:51:57 23° SE 06:58:41 10° E daylight
11 Apr - 08:45:55 10° SW 08:55:04 51° SSE 09:03:56 10° E daylight
11 Apr - 10:49:45 10° WSW 10:59:09 71° S 11:08:17 10° E daylight
11 Apr - 12:54:15 10° W 13:03:17 57° SSW 13:12:08 10° SE daylight
11 Apr - 14:59:18 10° W 15:06:30 27° SW 15:13:40 10° S daylight
12 Apr - 06:20:20 10° S 06:26:55 21° SE 06:33:20 10° E daylight
12 Apr - 08:20:51 10° SW 08:29:58 49° SSE 08:38:47 10° E daylight
12 Apr - 10:24:34 10° WSW 10:34:00 70° S 10:43:09 10° E daylight
12 Apr - 12:29:04 10° W 12:38:10 59° SSW 12:47:05 10° SE daylight
12 Apr - 14:34:01 10° W 14:41:29 29° SW 14:48:53 10° SSE daylight
13 Apr - 05:55:42 10° S 06:01:54 19° SE 06:07:57 10° E daylight
13 Apr - 07:55:47 10° SW 08:04:52 47° SSE 08:13:38 10° E daylight
13 Apr - 09:59:23 10° WSW 10:08:52 70° S 10:18:01 10° E daylight
13 Apr - 12:03:52 10° W 12:13:03 60° SSW 12:22:00 10° ESE daylight
13 Apr - 14:08:46 10° W 14:16:27 31° SW 14:24:04 10° SSE daylight
14 Apr - 05:31:08 10° SSE 05:36:53 17° SE 05:42:31 10° E daylight
14 Apr - 07:30:45 10° SW 07:39:46 45° SSE 07:48:28 10° E daylight
14 Apr - 09:34:13 10° WSW 09:43:43 69° S 09:52:53 10° E daylight
14 Apr - 11:38:42 10° W 11:47:56 62° SSW 11:56:56 10° ESE daylight
14 Apr - 13:43:31 10° W 13:51:25 33° SW 13:59:12 10° SSE daylight
15 Apr - 05:06:39 10° SSE 05:11:52 16° SE 05:17:01 10° E daylight
15 Apr - 07:05:43 10° SW 07:14:40 43° SSE 07:23:18 10° E daylight
15 Apr - 09:09:02 10° WSW 09:18:33 68° S 09:27:45 10° E daylight
15 Apr - 11:13:31 10° W 11:22:49 64° SSW 11:31:50 10° ESE daylight
15 Apr - 13:18:16 10° W 13:26:22 35° SW 13:34:20 10° SSE daylight
16 Apr - 04:42:16 10° SSE 04:46:52 14° SE 04:51:24 10° E daylight
16 Apr - 06:40:42 10° SSW 06:49:34 41° SSE 06:58:08 10° E daylight
16 Apr - 08:43:52 10° WSW 08:53:24 67° S 09:02:37 10° E daylight
16 Apr - 10:48:19 10° W 10:57:41 65° SSW 11:06:45 10° ESE daylight
16 Apr - 12:53:03 10° W 13:01:19 37° SW 13:09:26 10° SSE daylight
16 Apr - 15:01:13 10° WSW 15:03:41 11° WSW 15:06:09 10° SW daylight
17 Apr - 04:18:05 10° SSE 04:21:53 13° SE 04:25:38 10° E visible
17 Apr - 06:15:43 10° SSW 06:24:29 39° SE 06:32:58 10° E daylight
17 Apr - 08:18:43 10° WSW 08:28:16 66° SSE 08:37:28 10° E daylight
17 Apr - 10:23:07 10° W 10:32:33 67° SSW 10:41:39 10° ESE daylight
17 Apr - 12:27:49 10° W 12:36:15 39° SW 12:44:31 10° SSE daylight
17 Apr - 14:35:07 10° W 14:38:44 13° SW 14:42:20 10° SSW daylight
18 Apr - 03:54:13 10° SE 03:56:53 11° ESE 03:59:33 10° ESE visible
18 Apr - 05:50:44 10° SSW 05:59:24 37° SE 06:07:47 10° E daylight
18 Apr - 07:53:33 10° WSW 08:03:07 65° SSE 08:12:20 10° E daylight
18 Apr - 09:57:55 10° W 10:07:24 68° S 10:16:32 10° ESE daylight
18 Apr - 12:02:36 10° W 12:11:11 42° SSW 12:19:34 10° SSE daylight
18 Apr - 14:09:20 10° W 14:13:46 14° SW 14:18:10 10° SSW daylight
19 Apr - 05:25:47 10° SSW 05:34:19 35° SE 05:42:35 10° E daylight
19 Apr - 07:28:23 10° WSW 07:37:58 63° SSE 07:47:12 10° E daylight
19 Apr - 09:32:44 10° W 09:42:15 69° S 09:51:26 10° ESE daylight
19 Apr - 11:37:23 10° W 11:46:07 44° SSW 11:54:37 10° SE daylight
19 Apr - 13:43:43 10° W 13:48:47 16° SW 13:53:49 10° SSW daylight
20 Apr - 05:00:52 10° SSW 05:09:14 33° SE 05:17:22 10° E daylight
20 Apr - 07:03:14 10° WSW 07:12:49 62° SSE 07:22:03 10° E daylight
20 Apr - 09:07:32 10° W 09:17:06 70° S 09:26:19 10° ESE daylight
20 Apr - 11:12:11 10° W 11:21:02 46° SSW 11:29:38 10° SE daylight
20 Apr - 13:18:11 10° W 13:23:48 18° SW 13:29:21 10° SSW daylight
